Location: Newark
(7.0858°N, 171.3717°E)
Time: 23:20:24
(UTC+00:00)

deb Explorer IX - Visible Passes

Search period start: 05 December 2020 00:00
Search period end: 15 December 2020 00:00
Orbit: 537 x 1105 km, 38.8° (Epoch: 05 December)

Date Brightness Start Highest point End Pass type
(mag) Time Alt. Az. Time Alt. Az. Time Alt. Az.
08 Dec ? 08:20:11 10° NNW 08:21:07 15° NNW 08:21:07 15° NNW visible
09 Dec ? 07:56:42 10° NW 08:00:12 33° N 08:00:12 33° N visible
10 Dec ? 07:33:11 10° NW 07:38:31 45° NE 07:39:33 40° ENE visible
11 Dec ? 07:09:39 10° NW 07:15:12 47° NE 07:19:12 14° ESE visible
11 Dec ? 08:58:03 10° W 09:00:37 19° WSW 09:00:37 19° WSW visible
12 Dec ? 06:46:07 10° NW 06:51:52 49° NE 06:56:44 10° ESE visible
12 Dec ? 08:34:34 10° W 08:38:31 21° SW 08:40:36 16° SSW visible
13 Dec ? 08:11:03 10° W 08:15:12 22° SW 08:18:55 10° S visible
14 Dec ? 07:47:31 10° W 07:51:51 23° SW 07:55:45 10° S visible
